Погода в Китайгороде

Украина / Днепропетровская область     48°54′00″N   34°26′48″E
темп.,
°C
ветер,
м/с
пор.,
м/с
влажн.,
%
обл.,
%
осадки,
мм/ч
давл.,
гПа
погр.,
м
11 мая, вт
вт1100:00+11с81459100 0.0 1018866
03:00+10с71479100 0.5 1017669
06:00+10с7137696 0.0 1016514
09:00+14с81270100 0.0 1015670
12:00+16св91368100 0.0 10151459
15:00+14св7106893 0.2 10161331
18:00+15св510555 0.0 10161812
21:00+9ссв410755 0.0 1017222
12 мая, ср
ср1200:00+7св51079100 0.0 1016558
03:00+8св598599 0.1 1015627
06:00+8всв7118598 0.1 1016872
09:00+9всв71082100 0.3 1016886
12:00+10всв687692 0.4 10151073
15:00+8св4890100 1.9 1014626
18:00+10в447775 0.3 1013631
21:00+6всв119025 0.3 101310
13 мая, чт
чт1300:00+6ю1192100 0.0 101310
03:00+6ю339324 0.0 101456
06:00+5ююв23930 0.0 101443
09:00+11ююв2372100 0.0 1015463
12:00+17ю45557 0.0 10141576
15:00+19ю355096 0.0 10131595
18:00+20юв2461100 0.0 1012236
21:00+15в467396 0.0 101273
14 мая, пт
пт1400:00+13вюв4887100 0.0 1011122
03:00+13вюв4791100 0.0 1010118
06:00+13юв3794100 0.0 1010163
09:00+19ююв4679100 0.1 1010479
12:00+23ююв5657100 0.0 10091120
15:00+25ююз5747100 0.0 10091633
18:00+23ююз4657100 0.0 1008391
21:00+18ююз3366100 0.0 100841
15 мая, сб
сб1500:00+14з358812 0.1 100990
03:00+13з339492 0.1 101056
06:00+13з229096 0.0 101252
09:00+18юз226755 0.0 1012515
12:00+21ююз355610 0.0 10121254
15:00+24ююз474480 0.1 10112471
18:00+21ю3562100 0.0 1012185
21:00+17ю2272100 0.0 101212